Terminal Aerodrome Forecast
Issued by NWS Houston/Galveston, TX

Home | Current Version | Previous Version | Text Only | Print | Product List | Glossary On
Versions: 1 2 3 4 5 6 7 8 9 10 11 12 13 14 15 16 17 18 19 20 21 22 23 24 25 26 27 28 29 30 31 32 33 34 35 36 37 38 39 40 41 42 43 44 45 46 47 48
000
FTUS44 KHGX 221734
TAFCLL
TAF
KCLL 221734Z 2218/2318 21015G20KT P6SM SCT250
     FM230400 36006KT P6SM BKN250
     FM231000 02007KT P6SM OVC015
     FM231200 01011KT 6SM BR OVC007
     FM231500 36012G18KT 4SM -RA BR OVC015=

USA.gov is the U.S. government's official web portal to all federal, state and local government web resources and services.